Погода в Верёе

Норвегия     67°39′51″N   12°41′36″E
темп.,
°C
ветер,
м/с
пор.,
м/с
влажн.,
%
обл.,
%
осадки,
мм/ч
давл.,
гПа
погр.,
м
21 января, пт
пт2101:000ссз8857100 1.2 10131650
04:00+1сз7757100 0.1 10141397
07:00+1ссз6649100 0.2 10151672
10:00+1зсз335049 0.0 10161302
13:00+1юз4452100 0.0 10161274
16:00+2ююз7756100 0.0 10161364
19:00+2ю111165100 0.0 10141289
22:00+1ю151696100 0.3 1012747
22 января, сб
сб2201:00+1ю151998100 2.3 1009699
04:00+3ююз161896100 1.3 1007662
07:00+5ююз121397100 2.1 1006393
10:00+5ююз131596100 0.3 1006475
13:00+6юз151883100 0.4 1005900
16:00+6юз141985100 0.1 1003714
19:00+6ююз182387100 0.2 1000985
22:00+7юз182388100 0.6 9991055
23 января, вс
вс2301:00+6з152079100 2.6 10021197
04:00+6зюз131879100 0.1 1003933
07:00+7юз202789100 2.3 10001089
10:00+7юз192691100 0.4 1000855
13:00+7ююз202689100 1.0 998907
16:00+7юз212986100 1.4 9971071
19:00+7юз223090100 2.5 9941195
22:00+7юз253387100 0.6 9921307
24 января, пн
пн2401:00+3зюз121597100 5.3 9951057
04:00+3зюз91296100 3.4 994908
07:00+4зюз121659100 4.3 9942162
10:00+4юз131465100 0.3 9941630
13:00+1зсз181996100 1.8 9921136
16:00+3з111350100 0.5 9942340
19:00+2сз16176099 1.0 10002105
22:00−1сз161876100 0.4 10082192
25 января, вт
вт2501:00−1сз171969100 1.4 10122025
04:000сз151674100 1.3 10161747
07:000сз131465100 2.2 10191770
10:00+1сз101165100 1.0 10211714
13:00+1зсз7860100 1.5 10221284
16:00+2з7857100 0.6 10211317
19:00+2зюз775996 1.3 10201217
22:00+3ююз775284 0.1 10191672